Regional Weather Roundup
Issued by NWS

Home | Current Version | Previous Version | Text Only | Print | Product List | Glossary Off
Versions: 1 2 3 4 5 6 7 8 9 10 11 12 13 14 15 16 17 18 19 20 21 22 23 24 25 26 27 28 29 30 31 32 33 34 35 36 37 38 39 40 41 42 43 44 45 46 47

000
ASUS42 KTBW 301116
RWRFL
FLORIDA REGIONAL WEATHER ROUNDUP
NATIONAL WEATHER SERVICE TAMPA BAY RUSKIN FL
700 AM EDT SUN AUG 30 2015

NOTE: "FAIR" INDICATES FEW OR NO CLOUDS BELOW 12,000 FEET WITH NO
SIGNIFICANT WEATHER AND/OR OBSTRUCTIONS TO VISIBILITY.


FLZ001>010-012>015-112-114-115-301200-
PANHANDLE FLORIDA

CITY           SKY/WX    TMP DP  RH WIND       PRES   REMARKS
PENSACOLA      CLEAR     71  68  90 NE7       30.02S
PENSACOLA NAS  PTCLDY    72  69  90 NE5       30.02S
MILTON NAS     CLEAR     66  65  96 N3        30.04
CRESTVIEW      CLEAR     66  65  96 CALM      30.05R
DUKE FIELD     FAIR      66  64  94 CALM      30.03R FOG
VALPARAISO     CLEAR     68  66  94 N2        30.03R
MARY ESTHER    CLEAR     68  66  91 N3        30.02R
TRI COUNTY     CLOUDY    67  66  97 CALM      30.04S FOG
PANAMA CITY    FOG       69  68  96 CALM      30.02R VSB 1/2
TYNDALL AFB    CLEAR     70  69  97 N5        30.01S
APALACHICOLA   CLEAR     69  69 100 NE6       30.00R

STATION/POSITION SKY/WX   TEMP    WIND        PRES    WAVE   SWELL
                          AIR SEA DIR/SP/G            HT/PER HT/PER
                          (F)     (DEG/KT/KT) (MB)    (FT/S) (FT/S)
30.1N   87.6W              82 85  140/  4/  6 1015.5R   2/ 3   2/ 4
29.2N   88.2W              82 85  130/  6/  6 1016.4R   1/ 5   2/ 5
28.8N   86.0W              81 85   60/  6/  8 1015.8R   1/ 3
PANAMA CITY BEAC NOT AVBL
CAPE SAN BLAS    NOT AVBL
TOWER C                    80      40/ 10/ 11 1015.8R
28.5N   84.5W              83 85  100/ 10/ 12 1015.5R   2/ 4   2/ 4

$$
FLZ011-016>038-118-127-128-134-139-239-301200-
NORTH FLORIDA

CITY           SKY/WX    TMP DP  RH WIND       PRES   REMARKS
MARIANNA       FOG       70  70 100 CALM      30.03R VSB 1/2
TALLAHASSEE    PTCLDY    73  71  93 CALM      30.03R
PERRY          CLOUDY   N/A N/A N/A CALM      30.05R
CROSS CITY       N/A     73  72  96 N3        30.03R
LAKE CITY      FAIR      70  70 100 CALM      30.04R
GAINESVILLE    CLOUDY    72  70  93 CALM      30.02S
MAYPORT NAS    CLOUDY    80  74  81 SE10      30.03R
JACKSONVILLE   CLOUDY    73  73 100 CALM      30.03R
JAX NAS        MOCLDY    79  73  82 CALM      30.03S
JAX CRAIG      MOCLDY    75  73  93 CALM      30.03R
JAX CECIL      MOCLDY    72  72 100 CALM      30.03S
FERNANDINA BEA FAIR      81  73  78 CALM      30.03R
ST AUGUSTINE   CLOUDY    79  76  90 SE10      30.02F

STATION/POSITION SKY/WX   TEMP    WIND        PRES    WAVE   SWELL
                          AIR SEA DIR/SP/G            HT/PER HT/PER
                          (F)     (DEG/KT/KT) (MB)    (FT/S) (FT/S)
SHELL POINT                74      40/  3/  7   N/A
KEATON BEACH               73      70/  4/  5 1017.2R
CEDAR KEY                  76     110/  8/  9 1016.7R
FERNANDINA       NOT AVBL
30.7N   81.3W                 86                N/A     5/11   2/11
MAYPORT          NOT AVBL
31.4N   80.9W              80 84  150/  4/  6 1018.0F   4/11   3/11
ST AUGUSTINE               80 84  150/ 15/ 17 1017.0F

$$
FLZ040-043>046-052-053-057-058-063-144-301200-
INTERIOR CENTRAL FLORIDA

CITY           SKY/WX    TMP DP  RH WIND       PRES   REMARKS
OCALA          CLEAR     72  70  94 CALM      30.01S
THE VILLAGES     N/A     73  72  94 CALM      29.91S
LEESBURG       CLOUDY    75  73  93 E3        30.00F
SANFORD        CLOUDY    76  74  93 N5        29.99S
ORLANDO EXEC   CLOUDY    77  76  96 NE3       29.99S
ORLANDO INTL   CLOUDY    77  76  96 NE6       29.99R
KISSIMMEE      PTCLDY    75  75 100 CALM      29.99
WINTER HAVEN   CLOUDY    75  75 100 N6        29.99F
LAKELAND       MOCLDY    73  73 100 N3        29.99S
BARTOW         MOCLDY    73 N/A N/A CALM      29.99S
OKEECHOBEE     CLOUDY    73  72  94 CALM      29.97R

$$
FLZ041-047-054-059-064-141-147-301200-
EAST CENTRAL FLORIDA

CITY           SKY/WX    TMP DP  RH WIND       PRES   REMARKS
ORMOND BEACH   PTCLDY    77  73  88 E6        30.00
DAYTONA BEACH  CLOUDY    78  74  87 E3        30.00S
DELAND           N/A     75  73  94 CALM      30.02R
JFK SPACE CTR  CLOUDY    78  75  89 SE9       29.99R
TITUSVILLE     MOCLDY    79  75  89 E9        30.00
CAPE CANAVERAL CLOUDY    77  75  94 E7        29.98S THUNDER
PATRICK AFB    TSTM      79  75  89 SE13      29.98R
MELBOURNE      CLOUDY    79  77  94 E7        29.97S
VERO BEACH     CLOUDY    80  74  81 SE9       29.97F
FT PIERCE      CLOUDY    79  74  84 S9        29.95F
STUART         CLOUDY   N/A N/A N/A CALM      30.05

STATION/POSITION SKY/WX   TEMP    WIND        PRES    WAVE   SWELL
                          AIR SEA DIR/SP/G            HT/PER HT/PER
                          (F)     (DEG/KT/KT) (MB)    (FT/S) (FT/S)
28.5N   80.2W              85 84  120/ 17/ 23 1015.1S
28.9N   78.5W              85 85  120/ 16/ 19 1016.8F
TRIDENT PIER     NOT AVBL
28.4N   80.5W                 86                N/A     4/11   2/11
27.5N   80.2W                 85                N/A     5/ 6   2/11

$$
FLZ050-056-061-142-242-148-248-149-249-151-251-155-255-
160-260-301200-
WEST CENTRAL FLORIDA

CITY           SKY/WX    TMP DP  RH WIND       PRES   REMARKS
CRYSTAL RIVER  FAIR      72  72 100 E3        30.01S
INVERNESS      FAIR      72  72 100 CALM      30.01S
BROOKSVILLE    CLOUDY    73  71  93 NE3       30.01R
CLEARWATER     MOCLDY    76  73  91 E8        29.98S
TAMPA INTL     CLOUDY    75  72  90 N5        29.99R
TAMPA EXEC     CLOUDY    75  72  88 E6        29.99S
PLANT CITY     CLOUDY    75  75 100 N5        30.00S
MACDILL AFB    MOCLDY    74  74 100 NE7       29.97S
PETER O KNIGHT CLOUDY    77  73  88 NE7       29.98S
ST PETERSBURG  MOCLDY    78  74  87 E13       29.96S
SARASOTA       MOCLDY    74  73  97 NE6       29.95S
VENICE         FAIR      77  73  88 NE9       29.96S

STATION/POSITION SKY/WX   TEMP    WIND        PRES    WAVE   SWELL
                          AIR SEA DIR/SP/G            HT/PER HT/PER
                          (F)     (DEG/KT/KT) (MB)    (FT/S) (FT/S)
CEDAR KEY                  76     110/  8/  9 1016.7R
28.5N   84.5W              83 85  100/ 10/ 12 1015.5R   2/ 4   2/ 4
27.3N   84.2W                 86                N/A     3/ 5
CLEARWATER BEACH NOT AVBL
MIDDLE TAMPA BAY NOT AVBL
VENICE                     76 86   40/  7/  9 1014.1R

$$
FLZ066-069-070-075>078-162-262-165-265-301200-
SOUTHWEST FLORIDA AND KEYS

CITY           SKY/WX    TMP DP  RH WIND       PRES   REMARKS
PUNTA GORDA    CLOUDY    75  75 100 E5        29.98R
FT MYERS       MOCLDY    76  75  97 E6        29.94S
SOUTHWEST INTL CLOUDY    77  74  90 E8        29.95R
NAPLES         MOCLDY    78  75  90 E8        29.93S
MARATHON       MOCLDY    82  79  90 SE13G22   29.89R
KEY WEST NAS   LGT RAIN  83  78  85 SE17      29.88R
KEY WEST INTL  PTCLDY    84  79  85 SE20      29.87S HX  96

STATION/POSITION SKY/WX   TEMP    WIND        PRES    WAVE   SWELL
                          AIR SEA DIR/SP/G            HT/PER HT/PER
                          (F)     (DEG/KT/KT) (MB)    (FT/S) (FT/S)
VENICE                     76 86   40/  7/  9 1014.1R
NAPLES           NOT AVBL
26.0N   85.6W              84 86   30/ 14/ 16 1013.8R   2/ 5
DRY TORTUGAS                                    N/A
NW FL BAY                  86     140/ 21/ 25 1012.8
SAND KEY                   84     150/ 15     1011.2F
LONG KEY                   83 86  130/ 13/ 15 1014.3R
MOLASSES REEF              83 87  140/ 17/ 20 1014.1R

$$
FLZ067-068-071>074-168-172>174-301200-
SOUTHEAST FLORIDA

CITY           SKY/WX    TMP DP  RH WIND       PRES   REMARKS
W PALM BEACH   TSTM      78  76  93 SE13      29.98R
FT LAUDER-EXEC TSTM      78  76  93 S17G31    29.98R
FT LAUDERDALE  CLOUDY    77  75  93 VRB3      29.96S THUNDER
POMPANO BEACH  CLOUDY    80  75  84 SW5       29.97R THUNDER
PEMBROKE PINES CLOUDY    79  75  87 E3        29.97F
OPA LOCKA      CLOUDY    75  32  20 S5        29.97S THUNDER
MIAMI          CLOUDY    77  76  96 CALM      29.95F THUNDER
WEST KENDALL   CLOUDY    77  32  19 E10         N/A
HOMESTEAD      CLOUDY    81  76  85 SE8       29.95R

STATION/POSITION SKY/WX   TEMP    WIND        PRES    WAVE   SWELL
                          AIR SEA DIR/SP/G            HT/PER HT/PER
                          (F)     (DEG/KT/KT) (MB)    (FT/S) (FT/S)
PORT EVERGLADES            85     130/ 11/ 15 1014.7R
SETTLEMENT POINT           83     130/  9/ 11 1016.2R

$$



USA.gov is the U.S. government's official web portal to all federal, state and local government web resources and services.